Weather in Khakurinokhabl

Russia / Republic of Adygea     45°01′09″N   40°14′10″E
temp.,
°C
wind,
m/s
gust,
m/s
humid.,
%
clouds,
%
prec.,
mm/h
press.,
hPa
HPBL,
m
24 may, tue
tue2400:00+12w2395100 1.1 100879
03:00+10wsw3798100 2.5 1009223
06:00+11wsw279599 0.4 1010281
09:00+12w4690100 0.9 1011415
12:00+14nw348037 0.5 1011680
15:00+13wnw358883 2.5 1012225
18:00+12nnw369094 2.6 1013188
21:00+11w2393100 3.1 101574
25 may, wed
wed2500:00+11sw359596 1.2 1016164
03:00+10wsw369789 2.0 1017166
06:00+10wsw24955 0.2 1018124
09:00+15w457220 0.5 1019518
12:00+18wnw45505 0.2 10191859
15:00+19w454733 0.2 10192269
18:00+17n246929 0.0 1020385
21:00+14sw2269100 0.0 102119
26 may, thu
thu2600:00+13wsw237039 0.0 102138
03:00+10w34875 0.0 102266
06:00+10sw24885 0.0 102295
09:00+17sw22664 0.0 1022563
12:00+20wsw124822 0.0 10212072
15:00+21wnw234723 0.0 10201938
18:00+20nw236411 0.0 1019569
21:00+14wsw3475100 0.0 102054
27 may, fri
fri2700:00+11w336041 0.0 102046
03:00+10wsw337577 0.0 102036
06:00+12sw247454 0.0 1020113
09:00+16w246790 0.0 1020322
12:00+20wnw4552100 0.0 1019959
15:00+21wnw455381 0.0 10181210
18:00+21wnw246517 0.0 1018553
21:00+15ssw22790 0.0 101912
28 may, sat
sat2800:00+13s22835 0.0 101811
03:00+12sse22860 0.0 101711
06:00+13ese24870 0.0 1017107
09:00+20ese34690 0.0 1015519
12:00+24e22550 0.0 10141096
15:00+26ne22444 0.0 10131553
18:00+24ne23635 0.0 1013117
21:00+18e34773 0.0 101350